Terminal Aerodrome Forecast
Issued by NWS Wilmington, OH

Current Version | Previous Version | Graphics & Text | Print | Product List | Glossary On
Versions: 1 2 3 4 5 6 7 8 9 10 11 12 13 14 15 16 17 18 19 20 21 22 23 24
753
FTUS41 KILN 080258 AAA
TAFCMH
TAF AMD
KCMH 080258Z 0803/0824 20007KT P6SM BKN070 OVC120
     FM080900 21006KT P6SM BKN035 OVC060
     FM081100 24005KT P6SM -SHRA SCT018 OVC028
     FM081600 26006KT P6SM BKN035 OVC100
     FM082100 27008KT P6SM -SHRA BKN025 OVC040=

USA.gov is the U.S. government's official web portal to all federal, state and local government web resources and services.